Flag for Germany Weather past 2 weeks in Freising, Bavaria, Germany

Now
69 °F

Scattered clouds.


Feels Like: 69 °F
Forecast: 56 / 75 °F
Wind: 1 mph from East

Location: Muenchen Flughafen

Current Time: Jul 31, 2014 at 8:30:43 PM

Latest Report: Jul 31, 2014 at 8:00 PM


Visibility: 31 mi

Pressure: 29.94 "Hg

Humidity: 73%

Dew point: 60 °F

Location of FreisingLocation

Historic Weather in Freising — Graph

°F

Freising temperature yesterday

Maximum temperature yesterday: 69 °F (at 2:00 PM)
Minimum temperature yesterday: 64 °F (at 4:00 AM)
Average temperature yesterday: 66 °F

Past Weeks' High & Low Weather Summary

 TemperatureHumidityPressure
High88 °F (Jul 19, 4:00 PM)100% (Jul 23, 4:00 AM)30.17 "Hg (Jul 23, 4:00 AM)
Low51 °F (Jul 24, 6:00 AM)32% (Jul 17, 6:00 PM)29.67 "Hg (Jul 29, 7:00 PM)
Average67 °F76%29.90 "Hg
* Reported Jul 16 7:00 PM — Jul 31 7:00 PM, Freising, Weather by CustomWeather, © 2014

Note: Actual official high and low records may vary slightly from our data, if they occured in-between our weather recording intervals... More about our weather records

Advertising

Freising weather history for previous 24 hours

 ConditionsComfort  
Time TempWeatherWind HumidityBarometerVisibility
7:00 PM
Jul 31
73 °FPartly sunny.1 mph56%29.93 "Hg31 mi
6:00 PM72 °FOvercast.1 mph52%29.94 "Hg31 mi
5:00 PM73 °FOvercast.2 mph53%29.95 "Hg28 mi
4:00 PM71 °FOvercast.1 mph60%29.95 "Hg28 mi
3:00 PM71 °FOvercast.3 mph55%29.95 "Hg28 mi
2:00 PM70 °FScattered clouds.3 mph62%29.96 "Hg25 mi
1:00 PM67 °FPartly sunny.5 mph72%29.97 "Hg19 mi
12:00 PM65 °FOvercast.5 mph79%29.98 "Hg16 mi
11:00 AM64 °FOvercast.3 mph81%29.97 "Hg14 mi
10:00 AM63 °FOvercast.5 mph85%29.97 "Hg11 mi
9:00 AM63 °FLow clouds.5 mph87%29.95 "Hg9 mi
8:00 AM63 °FOvercast.5 mph89%29.93 "Hg8 mi
7:00 AM63 °FOvercast.3 mph90%29.92 "Hg7 mi
6:00 AM63 °FOvercast.5 mph92%29.90 "Hg6 mi
5:00 AM63 °FLow clouds.3 mph93%29.88 "Hg7 mi
4:00 AM64 °FLight rain. Low clouds.5 mph93%29.87 "Hg6 mi
3:00 AM64 °FRain. Low clouds.3 mph96%29.86 "Hg3 mi
2:00 AM65 °FLow clouds.3 mph95%29.85 "Hg11 mi
1:00 AM65 °FLow clouds.5 mph95%29.85 "Hg7 mi
12:00 AM65 °FLight rain. Low clouds.2 mph94%29.84 "Hg7 mi
11:00 PM
Jul 30
65 °FLight rain. Low clouds.2 mph93%29.83 "Hg11 mi
10:00 PM65 °FLight rain. Low clouds.5 mph95%29.82 "Hg9 mi
9:00 PM65 °FSprinkles. Overcast.5 mph93%29.81 "Hg9 mi
8:00 PM66 °FLow clouds.8 mph91%29.80 "Hg16 mi
Weather by CustomWeather, © 2014

See weather overviewHow to use our weather pages